Wind_Speed
21 20 21 21 21 22 22 20 18 16 15 16 18 18 17 19 17 18 16 16 17 18 17 17 14 13 13 11 13 14 15 14 15 16 16 16 19 22 23 21 19 17 17
22 22 21 20 21 21 18 17 15 14 13 14 16 17 17 17 17 17 15 16 16 17 18 17 17 16 16 15 16 15 15 16 16 17 16 15 16 18 18 15 14 13 12
21 19 19 18 18 16 16 15 14 14 13 13 13 16 17 17 17 17 15 16 14 16 16 15 18 18 20 19 17 17 17 17 17 17 17 16 16 15 17 16 14 14 13
22 19 18 17 13 13 14 15 15 16 16 15 13 13 14 16 16 15 15 16 16 18 18 19 20 20 22 21 21 20 20 18 16 16 17 18 17 17 16 17 18 18 16
20 18 17 14 12 12 13 14 14 15 16 14 13 12 12 14 16 16 17 17 18 19 20 20 20 21 23 23 23 23 21 19 17 16 18 20 20 18 20 19 19 20 21
20 17 15 12 12 13 13 13 13 16 17 16 15 13 13 13 17 19 20 20 22 22 23 23 23 23 23 23 23 23 22 20 18 17 19 22 23 24 25 24 25 26 26
17 15 13 11 12 14 14 13 13 13 14 14 14 16 14 15 15 18 21 22 23 24 24 24 23 22 23 22 22 23 22 21 22 21 23 26 29 30 31 30 30 31 30
18 14 11 11 13 14 12 12 14 13 14 14 15 16 17 18 18 19 21 21 21 21 21 21 21 22 21 21 22 24 23 23 25 26 28 30 33 35 35 35 34 34 36
18 13 13 13 14 13 13 11 12 12 12 13 15 16 17 19 21 22 24 23 23 23 23 24 23 24 25 26 28 28 30 31 33 33 35 36 36 36 40 41 42 41 42
19 15 15 14 15 14 12 12 11 10 12 13 14 15 17 19 21 23 24 25 26 25 26 27 28 29 30 31 31 32 34 35 37 37 39 40 41 41 45 46 46 47 48
21 17 18 16 16 15 13 11 10 11 13 15 16 17 19 19 19 21 23 24 26 28 29 29 30 30 31 32 34 35 37 39 40 41 42 44 46 46 44 42 42 43 45
22 20 21 19 17 16 15 13 14 16 18 19 18 18 20 20 20 20 21 22 24 26 27 27 28 30 32 34 36 38 41 42 43 44 45 45 40 38 36 36 36 37 37
25 23 23 21 19 17 15 15 17 18 21 23 24 23 21 21 21 22 22 24 25 27 28 29 31 33 35 36 39 42 43 43 41 36 34 35 35 35 35 34 34 36 37
25 23 24 21 21 19 18 17 19 20 22 25 28 28 27 25 24 25 26 27 29 30 32 33 34 36 37 38 39 39 38 37 34 33 33 34 36 37 38 39 40 40 41
24 23 22 21 21 22 23 24 25 28 30 29 31 31 32 30 28 28 29 30 32 33 34 34 35 36 37 37 37 37 35 34 34 35 35 37 38 39 40 42 43 44 44
24 22 22 22 23 23 22 24 26 30 31 30 31 32 33 33 32 32 33 34 36 36 35 36 35 35 36 36 35 35 35 36 36 38 38 40 39 40 40 40 41 44 46
22 23 23 22 24 24 26 29 30 32 32 32 34 33 32 32 33 34 36 38 37 35 32 31 31 31 32 33 34 34 35 36 37 39 39 40 40 39 40 43 45 47 49
23 21 22 24 24 25 27 32 30 33 34 36 33 31 31 31 33 35 37 36 32 31 30 30 30 31 33 34 34 35 34 36 38 39 41 42 42 44 46 46 48 51 53
24 21 22 22 24 26 28 29 33 36 39 33 30 32 33 34 36 37 37 34 32 31 32 32 33 33 33 35 35 36 37 38 40 41 42 45 47 49 51 53 55 57 59
26 22 22 24 27 27 29 33 36 39 33 30 32 32 33 36 38 39 38 37 37 36 34 34 34 36 37 38 38 39 41 43 45 46 48 50 52 54 57 60 63 64 67
27 26 26 27 29 31 33 35 38 34 33 33 34 35 36 37 39 40 40 38 37 37 37 38 38 38 40 43 43 43 44 46 49 53 57 59 61 63 65 68 70 71 72
28 28 27 27 30 33 35 36 34 33 33 33 36 35 38 40 42 43 39 37 38 39 40 41 42 42 44 46 48 51 52 53 57 59 61 63 63 65 67 69 71 73 75
28 28 29 30 32 35 38 35 30 32 37 38 37 39 41 43 42 39 38 40 41 41 42 43 45 47 49 51 55 61 64 66 67 63 63 65 67 69 71 73 76 79 81
30 29 30 31 34 37 35 31 32 36 38 38 40 42 43 42 41 40 40 40 41 42 44 47 50 52 55 58 61 64 66 70 73 72 70 72 74 75 76 79 81 84 87
29 30 31 32 33 34 34 35 36 38 39 40 42 42 41 41 40 41 40 41 43 47 50 52 54 57 61 63 65 67 69 71 74 78 77 78 79 81 83 86 88 90 91
30 31 31 32 34 36 37 39 40 40 40 41 42 42 40 40 39 40 42 44 48 50 52 55 58 61 63 66 68 71 73 76 78 80 82 82 84 86 89 91 95 95 98
Wind_Direction
275 279 285 291 296 300 300 299 299 294 286 276 270 269 270 270 273 270 266 259 259 260 262 266 266 263 267 265 278 290 295 300 296 300 305 311 321 326 316 308 307 305 306
272 276 284 291 300 306 311 306 299 294 286 273 272 267 268 269 270 271 272 268 267 269 268 269 270 270 271 276 274 274 283 291 296 300 301 315 322 335 335 325 322 319 314
270 275 285 293 302 308 313 307 301 298 292 294 290 276 268 265 263 268 271 273 274 276 278 278 276 277 277 277 275 280 286 291 297 301 303 306 313 323 328 336 330 323 319
262 270 282 293 295 302 307 308 296 300 298 293 299 293 273 259 255 261 267 270 275 279 281 279 276 279 277 278 279 282 286 281 285 291 293 297 304 308 309 315 317 319 319
259 269 277 280 281 297 302 307 303 301 306 295 303 312 291 264 257 258 265 271 275 279 280 284 287 285 280 279 279 281 282 272 276 282 285 284 289 290 292 292 295 296 299
259 264 271 266 277 292 295 301 303 303 310 306 297 306 308 290 269 264 268 274 278 278 280 284 288 287 281 275 278 280 275 269 271 277 282 284 286 285 282 282 283 284 286
251 263 261 260 279 288 292 298 302 307 306 302 294 290 295 293 289 280 277 278 281 283 284 284 285 284 281 277 276 276 274 273 272 272 275 280 283 284 284 281 280 283 286
250 257 245 253 266 283 292 296 296 303 302 297 295 288 285 283 284 284 281 280 283 287 287 285 283 281 278 274 272 273 274 275 275 274 273 275 276 279 280 280 279 279 282
251 249 238 247 263 273 274 288 294 310 312 310 303 298 292 288 283 278 276 279 281 282 282 281 279 275 272 271 272 274 278 280 281 284 285 284 282 281 281 281 281 281 281
246 246 229 248 256 271 274 282 291 309 318 322 320 315 303 295 289 285 282 279 279 279 279 278 279 279 278 279 282 284 284 285 286 287 287 287 286 284 284 282 281 281 282
240 239 231 238 255 262 266 270 279 294 310 322 326 323 316 310 302 294 288 284 280 278 279 282 284 284 285 285 284 283 284 283 286 286 287 286 287 288 286 283 281 279 280
236 236 234 240 249 249 252 263 277 288 294 302 312 319 319 313 305 301 297 293 289 286 286 285 285 285 283 283 283 283 284 286 286 286 287 287 286 286 287 287 285 284 284
240 236 234 241 250 251 258 270 282 287 289 294 298 304 309 307 303 300 299 296 293 291 288 286 285 285 285 286 286 286 286 287 287 287 287 289 289 291 291 289 288 289 289
240 235 238 242 249 250 258 271 282 289 289 288 293 293 300 301 298 295 294 293 295 295 293 291 290 289 288 288 287 288 288 287 289 292 293 294 293 294 294 294 293 292 291
247 244 240 248 248 251 258 271 276 271 288 286 292 292 294 295 295 292 292 292 293 292 293 293 292 290 289 288 288 288 288 290 294 292 293 293 293 293 294 293 293 292 290
250 246 250 248 247 258 265 271 278 281 285 285 284 288 289 289 291 292 292 294 294 293 291 289 288 287 288 288 289 290 293 294 295 294 294 292 291 291 290 289 288 287 287
249 249 252 251 252 259 266 272 278 283 290 291 289 283 285 288 292 293 296 296 295 294 294 293 294 294 292 292 292 292 293 294 294 293 291 290 290 290 287 285 285 285 287
248 253 251 256 260 267 273 278 283 282 291 292 293 292 290 291 293 295 297 296 294 293 295 296 296 295 294 294 294 294 294 293 291 289 288 289 287 287 287 286 285 288 286
246 252 256 258 264 272 280 280 281 288 295 292 293 292 293 298 298 298 297 295 294 294 295 295 296 295 295 294 295 294 293 291 289 290 291 290 291 290 290 291 290 288 290
246 254 255 260 270 278 282 285 289 295 294 289 291 293 295 296 299 303 301 299 297 296 295 296 298 298 297 297 297 297 296 296 296 295 294 294 292 291 292 293 293 293 291
248 253 263 270 274 282 287 292 294 291 287 291 294 296 296 297 299 302 300 300 301 301 300 300 300 300 301 301 301 300 300 299 297 296 296 294 292 292 293 292 293 293 293
247 254 266 271 277 282 288 294 290 284 292 291 293 293 295 297 300 300 298 299 301 301 302 303 303 303 303 301 300 300 298 296 295 294 293 292 292 292 293 293 292 292 292
248 255 264 272 280 286 290 289 279 278 288 291 293 295 297 299 300 300 300 301 302 304 305 303 302 300 301 301 300 300 298 296 294 293 293 292 292 292 293 294 294 293 292
251 258 264 273 283 289 288 285 282 283 288 292 294 297 301 302 302 301 302 303 304 302 300 300 302 301 301 300 300 300 300 299 299 296 295 294 295 296 296 295 294 293 293
252 257 266 277 286 289 285 284 285 287 292 296 299 301 301 300 300 302 303 302 301 302 302 302 302 300 301 301 301 301 300 298 297 296 295 295 296 297 297 297 297 297 296
252 259 270 279 285 287 286 286 288 292 295 298 300 302 300 299 300 300 300 300 301 301 302 301 302 302 303 302 301 300 300 299 297 297 296 297 298 299 300 300 300 300 299
Height
5854 5854 5853 5853 5852 5851 5850 5850 5849 5849 5849 5849 5849 5849 5851 5852 5853 5853 5853 5854 5854 5855 5855 5855 5854 5854 5855 5854 5855 5855 5855 5854 5853 5852 5852 5850 5849 5847 5845 5842 5842 5841 5840
5852 5852 5851 5851 5850 5849 5848 5847 5847 5847 5847 5846 5846 5847 5848 5849 5850 5852 5852 5852 5852 5852 5852 5852 5852 5852 5852 5851 5852 5851 5851 5851 5851 5849 5849 5847 5846 5844 5843 5841 5840 5839 5838
5849 5849 5849 5849 5848 5847 5846 5846 5846 5845 5845 5845 5844 5844 5845 5846 5847 5849 5850 5850 5850 5850 5849 5849 5849 5849 5849 5848 5848 5847 5848 5847 5847 5845 5846 5844 5843 5842 5841 5839 5838 5838 5837
5846 5846 5847 5847 5847 5846 5845 5845 5845 5845 5844 5843 5843 5842 5842 5843 5844 5846 5847 5847 5847 5847 5846 5846 5846 5845 5845 5844 5845 5844 5844 5844 5843 5841 5842 5841 5840 5839 5838 5837 5836 5836 5835
5843 5845 5845 5845 5844 5844 5844 5843 5843 5843 5843 5842 5841 5840 5840 5840 5842 5842 5844 5844 5844 5844 5843 5843 5842 5842 5842 5841 5841 5840 5839 5839 5838 5837 5837 5837 5836 5836 5834 5834 5833 5832 5832
5841 5842 5843 5843 5843 5843 5842 5841 5841 5841 5840 5840 5839 5838 5838 5838 5839 5839 5840 5840 5841 5841 5840 5839 5839 5838 5837 5836 5836 5835 5835 5834 5833 5832 5832 5832 5831 5830 5829 5829 5828 5828 5827
5839 5840 5840 5841 5841 5840 5840 5840 5839 5838 5837 5837 5837 5836 5836 5835 5836 5836 5836 5837 5837 5836 5836 5835 5834 5833 5833 5832 5831 5830 5829 5828 5828 5828 5827 5827 5826 5825 5824 5823 5822 5822 5821
5836 5838 5838 5838 5838 5838 5837 5837 5836 5835 5835 5834 5834 5833 5832 5832 5832 5832 5832 5832 5831 5831 5831 5830 5829 5828 5827 5826 5825 5824 5824 5823 5822 5822 5821 5821 5820 5818 5817 5816 5816 5815 5814
5832 5834 5834 5835 5835 5835 5835 5834 5834 5833 5832 5831 5830 5830 5829 5828 5828 5828 5827 5826 5826 5825 5825 5824 5823 5822 5821 5820 5819 5819 5819 5818 5818 5816 5815 5814 5813 5812 5811 5809 5808 5807 5806
5828 5830 5831 5831 5832 5832 5833 5832 5831 5831 5830 5828 5827 5825 5825 5823 5823 5822 5821 5821 5820 5819 5818 5817 5817 5817 5816 5816 5816 5815 5814 5813 5812 5810 5808 5806 5804 5804 5802 5800 5799 5798 5797
5824 5825 5827 5828 5828 5828 5829 5829 5829 5828 5827 5826 5824 5822 5820 5819 5818 5817 5816 5815 5814 5814 5813 5813 5812 5812 5811 5810 5809 5808 5807 5805 5803 5802 5800 5797 5795 5792 5791 5789 5788 5787 5786
5819 5821 5823 5824 5824 5825 5826 5826 5825 5824 5824 5823 5821 5819 5818 5816 5815 5814 5812 5811 5810 5809 5808 5807 5806 5805 5804 5803 5801 5800 5798 5796 5795 5792 5790 5787 5785 5783 5781 5779 5778 5777 5776
5815 5817 5818 5820 5820 5822 5822 5822 5822 5822 5820 5819 5818 5816 5815 5813 5811 5810 5808 5807 5806 5804 5803 5801 5800 5798 5797 5796 5794 5792 5790 5789 5786 5784 5782 5779 5777 5775 5772 5771 5770 5768 5766
5811 5813 5814 5815 5816 5818 5818 5818 5818 5817 5816 5815 5813 5811 5810 5808 5807 5805 5804 5802 5801 5799 5797 5795 5793 5791 5789 5787 5786 5784 5782 5780 5778 5776 5774 5772 5770 5767 5764 5762 5760 5759 5758
5807 5809 5810 5811 5812 5813 5814 5814 5814 5813 5812 5810 5809 5807 5805 5803 5801 5800 5798 5796 5794 5793 5790 5788 5785 5783 5781 5779 5778 5776 5774 5772 5770 5768 5766 5765 5763 5760 5758 5754 5751 5749 5747
5803 5805 5806 5807 5808 5809 5810 5810 5809 5808 5807 5806 5804 5802 5800 5797 5795 5794 5792 5790 5787 5785 5782 5780 5778 5776 5773 5772 5770 5769 5766 5763 5761 5759 5756 5756 5753 5751 5748 5744 5741 5738 5736
5799 5801 5802 5802 5804 5805 5805 5805 5804 5803 5802 5800 5797 5796 5793 5791 5790 5788 5785 5782 5780 5777 5774 5772 5769 5767 5766 5764 5763 5761 5758 5755 5752 5749 5747 5744 5742 5741 5737 5734 5731 5728 5725
5795 5797 5797 5798 5799 5800 5801 5799 5800 5797 5796 5793 5792 5790 5788 5786 5784 5781 5778 5775 5772 5769 5767 5765 5762 5760 5758 5756 5754 5751 5748 5745 5742 5739 5736 5734 5731 5727 5724 5721 5719 5714 5711
5791 5792 5793 5794 5794 5795 5796 5795 5793 5792 5790 5787 5786 5784 5782 5780 5778 5775 5772 5769 5766 5762 5760 5757 5755 5752 5750 5747 5745 5742 5739 5736 5732 5729 5726 5722 5719 5714 5711 5707 5702 5700 5698
5786 5788 5789 5789 5790 5790 5790 5789 5787 5786 5783 5781 5780 5778 5776 5774 5771 5768 5765 5762 5759 5755 5753 5749 5746 5743 5739 5736 5734 5731 5728 5724 5719 5717 5714 5710 5705 5702 5697 5692 5687 5683 5678
5782 5784 5785 5785 5785 5785 5784 5783 5781 5779 5777 5776 5774 5772 5770 5767 5764 5760 5757 5754 5751 5748 5744 5740 5737 5734 5729 5725 5722 5720 5716 5712 5709 5704 5699 5694 5690 5685 5680 5674 5669 5663 5658
5777 5779 5780 5780 5780 5779 5779 5778 5775 5773 5772 5770 5768 5765 5763 5760 5757 5753 5749 5746 5742 5738 5734 5731 5727 5724 5719 5714 5710 5707 5705 5703 5696 5690 5686 5679 5674 5669 5663 5657 5651 5645 5637
5772 5774 5774 5774 5774 5774 5773 5771 5770 5768 5766 5764 5761 5758 5755 5752 5748 5745 5741 5737 5733 5729 5726 5721 5717 5713 5709 5703 5697 5690 5686 5682 5678 5675 5670 5663 5657 5652 5645 5637 5629 5622 5614
5767 5768 5769 5769 5769 5768 5765 5764 5763 5762 5759 5756 5754 5751 5747 5743 5739 5735 5732 5728 5724 5720 5716 5711 5706 5701 5696 5690 5684 5677 5669 5660 5651 5650 5649 5642 5636 5630 5623 5615 5606 5599 5589
5762 5763 5763 5763 5763 5761 5759 5758 5757 5754 5752 5749 5745 5742 5739 5735 5731 5726 5723 5719 5715 5710 5705 5700 5695 5689 5682 5675 5668 5661 5654 5646 5638 5629 5627 5619 5613 5605 5598 5589 5578 5570 5559
5756 5757 5757 5757 5756 5755 5753 5752 5750 5747 5744 5741 5737 5734 5730 5727 5724 5719 5715 5711 5706 5700 5695 5688 5682 5675 5668 5661 5652 5644 5635 5625 5616 5607 5600 5597 5590 5583 5572 5562 5548 5539 5524